Change the Weather History Date:

Tuesday, January 14, 2014

  Actual Average Record
Temperature  
Mean Temperature 34 °F -  
Max Temperature 41 °F 35 °F 44 °F (2001)
Min Temperature 23 °F 17 °F 3 °F (2008)
Degree Days  
Heating Degree Days 32    
Moisture  
Dew Point 24 °F    
Average Humidity 64    
Maximum Humidity 86    
Minimum Humidity 43    
Precipitation  
Precipitation 0.00 in 0.05 in - ()
Sea Level Pressure  
Sea Level Pressure 30.07 in    
Wind  
Wind Speed 8 mph ()    
Max Wind Speed 22 mph    
Max Gust Speed -    
Visibility 5.6 miles    
Events      
Averages and records for this station are not official NWS values.
T = Trace of Precipitation, MM = Missing Value Source: Averaged Metar Reports

Daily Weather History Graph

Daily Weather History Graph

Search for Another Location

Airport or City:

Trip Planner

Search our weather history database for the weather conditions in past years. The results will help you decide how hot, cold, wet, or windy it might be!

Date:

Astronomy

Jan. 14, 2014 Rise Set
Actual Time 6:22 AM EET 4:08 PM EET
Civil Twilight 5:53 AM EET 4:37 PM EET
Nautical Twilight 5:21 AM EET 5:10 PM EET
Astronomical Twilight 4:49 AM EET 5:42 PM EET
Moon 2:54 PM EET (1/14) 4:41 AM EET (1/14)
Length of Visible Light 10h 43m
Length of Day
9h 45m
Waxing Gibbous, 97% of the Moon is Illuminated
Jan 14
Waxing Gibbous
Jan 16
Full
Jan 24
Last Quarter
Jan 30
New
Feb 6
First Quarter

Hourly Weather History & Observations

Time (EET) Temp. Windchill Dew Point Humidity Pressure Visibility Wind Dir Wind Speed Gust Speed Precip Events Conditions
12:50 AM 33.8 °F 28.6 °F 24.8 °F 70% 30.01 in 6.2 mi SSE 5.8 mph - N/A   Mostly Cloudy
1:50 AM 33.8 °F 29.6 °F 21.2 °F 60% 30.01 in 6.2 mi South 4.6 mph - N/A   Mostly Cloudy
2:00 AM 34 °F - 21 °F 46%  in 6 mi South 4.6 mph - -   Partly Cloudy
2:50 AM 33.8 °F 30.8 °F 21.2 °F 60% 30.01 in 6.2 mi SSE 3.5 mph - N/A   Mostly Cloudy
3:50 AM 32.0 °F 27.5 °F 21.2 °F 64% 30.01 in 6.2 mi SSE 4.6 mph - N/A   Mostly Cloudy
4:50 AM 33.8 °F 25.3 °F 23.0 °F 65% 30.01 in 6.2 mi South 11.5 mph - N/A   Mostly Cloudy
5:00 AM 35 °F - 22 °F 47%  in 6 mi South 11.5 mph - -   Scattered Clouds
5:50 AM 32.0 °F 24.8 °F 21.2 °F 64% 30.04 in 6.2 mi SSE 8.1 mph - N/A   Mostly Cloudy
6:50 AM 32.0 °F 25.6 °F 19.4 °F 60% 30.06 in 6.2 mi South 6.9 mph - N/A   Scattered Clouds
7:50 AM 35.6 °F 29.9 °F 21.2 °F 56% 30.06 in 6.2 mi SW 6.9 mph - N/A   Scattered Clouds
8:00 AM 35 °F - 21 °F 43%  in 6 mi SW 6.9 mph - -   Partly Cloudy
8:50 AM 37.4 °F 28.9 °F 24.8 °F 60% 30.06 in 5.0 mi SW 13.8 mph - N/A   Scattered Clouds
9:50 AM 39.2 °F 33.0 °F 23.0 °F 52% 30.09 in 5.0 mi SW 9.2 mph - N/A   Partly Cloudy
10:50 AM 39.2 °F 30.2 °F 26.6 °F 61% 30.06 in 5.0 mi WNW 17.3 mph - N/A   Partly Cloudy
11:00 AM 39 °F - 26 °F 48%  in 5 mi WNW 17.3 mph - -   Haze
11:50 AM 37.4 °F 26.6 °F 24.8 °F 60% 30.04 in 5.0 mi WNW 21.9 mph - N/A   Partly Cloudy
12:50 PM 37.4 °F 26.9 °F 24.8 °F 60% 30.06 in 6.2 mi WNW 20.7 mph - N/A   Partly Cloudy
1:50 PM 37.4 °F 28.2 °F 26.6 °F 65% 30.06 in 6.2 mi WNW 16.1 mph - N/A   Partly Cloudy
2:00 PM 38 °F - 26 °F 51%  in 6 mi WNW 16.1 mph - -   Scattered Clouds
2:50 PM 37.4 °F 27.8 °F 24.8 °F 60% 30.06 in 6.2 mi WNW 17.3 mph - N/A   Scattered Clouds
3:50 PM 37.4 °F 28.5 °F 23.0 °F 56% 30.06 in 6.2 mi WNW 15.0 mph - N/A   Scattered Clouds
4:50 PM 35.6 °F 29.2 °F 26.6 °F 70% 30.09 in 6.2 mi WNW 8.1 mph - N/A   Scattered Clouds
5:00 PM 36 °F - 25 °F 54%  in 6 mi WNW 11.5 mph - -   Partly Cloudy
5:50 PM 32.0 °F 27.5 °F 24.8 °F 75% 30.09 in 6.2 mi NNE 4.6 mph - N/A   Partly Cloudy
6:50 PM 32.0 °F 26.4 °F 24.8 °F 75% 30.12 in 5.0 mi NE 5.8 mph - N/A   Partly Cloudy
7:50 PM 30.2 °F 24.3 °F 26.6 °F 86% 30.12 in 3.7 mi ESE 5.8 mph - N/A   Scattered Clouds
8:00 PM 31 °F - 25 °F 71%  in 4 mi ESE 5.8 mph - -   Mist
8:50 PM 30.2 °F 25.4 °F 24.8 °F 80% 30.12 in 5.0 mi ESE 4.6 mph - N/A   Scattered Clouds
9:50 PM 30.2 °F 25.4 °F 24.8 °F 80% 30.12 in 5.0 mi ESE 4.6 mph - N/A   Scattered Clouds
10:50 PM 26.6 °F - 23.0 °F 86% 30.12 in 5.0 mi Variable 1.2 mph - N/A   Mostly Cloudy
11:00 PM 27 °F - 24 °F 82%  in 5 mi ESE 1.2 mph - -   Mist
11:50 PM 23.0 °F - 19.4 °F 86% 30.12 in 4.3 mi Variable 2.3 mph - N/A   Mostly Cloudy